Radiation Dose at Monitoring Post of Fukushima Daini Nuclear Power Station
Date,Time,MP-1(microSv/h),MP-2(microSv/h),MP-3(microSv/h),MP-4(microSv/h),MP-5(microSv/h),MP-6(microSv/h),MP-7(microSv/h),Wind Direction,Wind Velocity(m/s),Rain
2020/11/13,00:00,0.180,0.159,0.261,0.247,0.244,0.142,0.085,south,5.1,No
2020/11/13,00:10,0.181,0.159,0.261,0.248,0.246,0.142,0.085,south,4.9,No
2020/11/13,00:20,0.181,0.158,0.262,0.247,0.247,0.141,0.085,south,4.2,No
2020/11/13,00:30,0.182,0.158,0.263,0.246,0.246,0.142,0.086,south,4.2,No
2020/11/13,00:40,0.181,0.159,0.262,0.248,0.246,0.141,0.086,south,5.2,No
2020/11/13,00:50,0.181,0.159,0.261,0.248,0.247,0.141,0.085,south,4.5,No
2020/11/13,01:00,0.181,0.160,0.262,0.247,0.246,0.141,0.085,south,2.8,No
2020/11/13,01:10,0.181,0.159,0.260,0.247,0.246,0.142,0.085,south,3.8,No
2020/11/13,01:20,0.181,0.160,0.262,0.247,0.247,0.142,0.085,south,3.2,No
2020/11/13,01:30,0.179,0.159,0.260,0.247,0.246,0.141,0.086,south-southeast,2.5,No
2020/11/13,01:40,0.180,0.159,0.261,0.247,0.246,0.141,0.085,south-southeast,2.4,No
2020/11/13,01:50,0.181,0.159,0.261,0.247,0.246,0.141,0.085,south,2.5,No
2020/11/13,02:00,0.181,0.159,0.262,0.247,0.246,0.141,0.086,south-southeast,2.6,No
2020/11/13,02:10,0.181,0.159,0.262,0.247,0.246,0.141,0.086,south-southeast,3.8,No
2020/11/13,02:20,0.180,0.160,0.262,0.247,0.246,0.141,0.086,south-southeast,3.7,No
2020/11/13,02:30,0.181,0.158,0.261,0.247,0.247,0.142,0.085,south,3.7,No
2020/11/13,02:40,0.180,0.158,0.261,0.247,0.247,0.141,0.086,south,3.4,No
2020/11/13,02:50,0.180,0.160,0.262,0.247,0.246,0.142,0.086,south,3.7,No
2020/11/13,03:00,0.182,0.159,0.261,0.247,0.245,0.141,0.086,south,3.4,No
2020/11/13,03:10,0.181,0.159,0.260,0.246,0.247,0.142,0.086,south-southeast,3.6,No
2020/11/13,03:20,0.180,0.159,0.261,0.247,0.246,0.142,0.086,south-southeast,3.8,No
2020/11/13,03:30,0.180,0.159,0.261,0.247,0.246,0.142,0.085,south,4.8,No
2020/11/13,03:40,0.181,0.158,0.260,0.248,0.246,0.142,0.085,south,4.4,No
2020/11/13,03:50,0.180,0.159,0.260,0.246,0.246,0.141,0.086,south,4.3,No
2020/11/13,04:00,0.181,0.159,0.261,0.246,0.246,0.141,0.085,south,4.0,No
2020/11/13,04:10,0.181,0.159,0.261,0.247,0.246,0.142,0.086,south-southwest,3.7,No
2020/11/13,04:20,0.181,0.159,0.261,0.248,0.246,0.141,0.086,south-southwest,2.7,No
2020/11/13,04:30,0.181,0.159,0.262,0.247,0.246,0.141,0.086,south,2.0,No
2020/11/13,04:40,0.181,0.159,0.262,0.247,0.246,0.141,0.086,south-southeast,4.5,No
2020/11/13,04:50,0.182,0.159,0.262,0.248,0.247,0.141,0.086,south,4.7,No
2020/11/13,05:00,0.182,0.160,0.261,0.248,0.246,0.141,0.085,south,4.2,No
2020/11/13,05:10,0.182,0.160,0.261,0.248,0.246,0.142,0.086,south,2.9,No
2020/11/13,05:20,0.181,0.160,0.262,0.248,0.246,0.142,0.085,south,1.6,No
2020/11/13,05:30,0.181,0.160,0.263,0.249,0.246,0.142,0.085,south-southwest,1.8,No
2020/11/13,05:40,0.181,0.159,0.261,0.247,0.247,0.142,0.085,south,2.0,No
2020/11/13,05:50,0.182,0.159,0.261,0.248,0.245,0.142,0.086,southwest,2.5,No
2020/11/13,06:00,0.182,0.159,0.261,0.248,0.246,0.141,0.086,southwest,3.7,No
2020/11/13,06:10,0.180,0.160,0.261,0.248,0.245,0.141,0.085,southwest,3.4,No
2020/11/13,06:20,0.182,0.160,0.261,0.247,0.246,0.141,0.086,southwest,3.7,No
2020/11/13,06:30,0.181,0.159,0.260,0.247,0.246,0.142,0.086,southwest,3.5,No
2020/11/13,06:40,0.182,0.159,0.261,0.246,0.245,0.142,0.085,southwest,4.5,No
2020/11/13,06:50,0.182,0.159,0.261,0.247,0.247,0.142,0.085,southwest,3.9,No
2020/11/13,07:00,0.181,0.160,0.260,0.247,0.245,0.141,0.085,southwest,4.8,No
2020/11/13,07:10,0.181,0.159,0.262,0.247,0.246,0.142,0.086,southwest,3.7,No
2020/11/13,07:20,0.181,0.161,0.261,0.247,0.246,0.142,0.086,southwest,4.1,No
2020/11/13,07:30,0.182,0.160,0.261,0.246,0.247,0.141,0.085,south-southwest,3.2,No
2020/11/13,07:40,0.180,0.159,0.261,0.247,0.246,0.141,0.086,south-southwest,2.5,No
2020/11/13,07:50,0.181,0.158,0.260,0.247,0.246,0.142,0.085,south-southwest,2.8,No
2020/11/13,08:00,0.182,0.159,0.261,0.246,0.246,0.141,0.086,south,1.4,No
2020/11/13,08:10,0.182,0.160,0.262,0.247,0.247,0.143,0.085,south-southeast,1.1,No
2020/11/13,08:20,0.181,0.159,0.261,0.247,0.247,0.141,0.085,south-southeast,1.6,No
2020/11/13,08:30,0.182,0.160,0.262,0.247,0.246,0.141,0.085,southeast,0.9,No
2020/11/13,08:40,0.182,0.159,0.262,0.246,0.246,0.142,0.085,southeast,1.3,No
2020/11/13,08:50,0.180,0.159,0.261,0.247,0.247,0.141,0.085,south-southeast,1.0,No
2020/11/13,09:00,0.182,0.159,0.261,0.246,0.246,0.141,0.086,-,CALM,No
2020/11/13,09:10,0.182,0.159,0.263,0.247,0.248,0.142,0.086,east-southeast,0.9,No
2020/11/13,09:20,0.181,0.160,0.261,0.246,0.246,0.142,0.085,east-southeast,1.4,No
2020/11/13,09:30,0.183,0.159,0.260,0.248,0.247,0.142,0.086,east,1.2,No
2020/11/13,09:40,0.181,0.159,0.261,0.245,0.245,0.142,0.086,northeast,1.0,No
2020/11/13,09:50,0.180,0.159,0.261,0.247,0.247,0.142,0.087,east-southeast,0.7,No
2020/11/13,10:00,0.180,0.159,0.262,0.246,0.245,0.143,0.086,east,2.3,No
2020/11/13,10:10,0.181,0.159,0.259,0.247,0.246,0.142,0.086,east,2.4,No
2020/11/13,10:20,0.181,0.159,0.261,0.248,0.247,0.143,0.086,east,1.4,No
2020/11/13,10:30,0.180,0.159,0.259,0.247,0.243,0.142,0.086,east-southeast,2.1,No
2020/11/13,10:40,0.181,0.160,0.263,0.249,0.247,0.142,0.086,southeast,2.0,No
2020/11/13,10:50,0.180,0.160,0.261,0.247,0.246,0.143,0.085,southeast,2.5,No
2020/11/13,11:00,0.181,0.160,0.262,0.249,0.244,0.142,0.086,south,2.0,No
2020/11/13,11:10,0.181,0.158,0.262,0.248,0.246,0.143,0.086,south-southwest,2.9,No
2020/11/13,11:20,0.180,0.160,0.259,0.247,0.246,0.141,0.086,south-southeast,3.0,No
2020/11/13,11:30,0.180,0.158,0.262,0.247,0.243,0.143,0.086,southeast,3.1,No
2020/11/13,11:40,0.181,0.160,0.260,0.246,0.247,0.141,0.085,southeast,4.2,No
2020/11/13,11:50,0.179,0.159,0.262,0.249,0.245,0.143,0.085,southeast,4.5,No
2020/11/13,12:00,0.180,0.159,0.261,0.246,0.244,0.141,0.086,southeast,3.8,No
2020/11/13,12:10,0.181,0.159,0.260,0.246,0.247,0.142,0.084,south-southeast,4.0,No
2020/11/13,12:20,0.179,0.157,0.262,0.248,0.246,0.141,0.085,south-southeast,4.9,No
2020/11/13,12:30,0.180,0.159,0.259,0.245,0.243,0.141,0.085,south-southeast,4.4,No
2020/11/13,12:40,0.180,0.157,0.259,0.248,0.245,0.142,0.085,south-southeast,4.8,No
2020/11/13,12:50,0.179,0.158,0.260,0.246,0.245,0.141,0.085,south-southeast,4.7,No
2020/11/13,13:00,0.178,0.159,0.260,0.245,0.244,0.142,0.084,south-southeast,5.1,No
2020/11/13,13:10,0.179,0.157,0.261,0.247,0.247,0.140,0.084,southeast,4.8,No
2020/11/13,13:20,0.181,0.158,0.259,0.245,0.243,0.142,0.085,southeast,4.2,No
2020/11/13,13:30,0.180,0.158,0.259,0.245,0.245,0.141,0.085,south-southeast,4.0,No
2020/11/13,13:40,0.177,0.157,0.261,0.248,0.246,0.141,0.084,southeast,3.8,No
2020/11/13,13:50,0.178,0.158,0.260,0.245,0.245,0.141,0.085,south-southeast,4.0,No
2020/11/13,14:00,0.180,0.157,0.261,0.247,0.245,0.140,0.085,south-southeast,4.4,No
2020/11/13,14:10,0.179,0.157,0.259,0.246,0.246,0.142,0.085,south-southeast,3.9,No
2020/11/13,14:20,0.181,0.158,0.262,0.246,0.244,0.141,0.083,south-southeast,4.0,No
2020/11/13,14:30,0.180,0.157,0.262,0.246,0.247,0.139,0.085,south-southeast,4.1,No
2020/11/13,14:40,0.181,0.159,0.260,0.246,0.245,0.141,0.084,south-southeast,3.9,No
2020/11/13,14:50,0.180,0.158,0.262,0.246,0.248,0.141,0.085,south-southeast,4.4,No
2020/11/13,15:00,0.182,0.157,0.260,0.246,0.245,0.140,0.084,south,5.5,No
2020/11/13,15:10,0.179,0.158,0.261,0.249,0.247,0.141,0.085,south-southeast,5.0,No
2020/11/13,15:20,0.180,0.158,0.260,0.246,0.245,0.140,0.085,south,4.5,No
2020/11/13,15:30,0.179,0.158,0.261,0.247,0.247,0.141,0.085,south-southeast,4.0,No
2020/11/13,15:40,0.181,0.159,0.260,0.247,0.244,0.140,0.085,south-southeast,4.0,No
2020/11/13,15:50,0.179,0.158,0.261,0.247,0.247,0.141,0.084,south-southeast,4.1,No
2020/11/13,16:00,0.180,0.160,0.261,0.248,0.245,0.141,0.085,south-southeast,3.4,No
2020/11/13,16:10,0.178,0.159,0.261,0.246,0.247,0.140,0.085,south-southeast,3.9,No
2020/11/13,16:20,0.181,0.159,0.261,0.249,0.245,0.141,0.085,south-southeast,3.5,No
2020/11/13,16:30,0.181,0.158,0.260,0.246,0.246,0.141,0.084,south-southeast,4.0,No
2020/11/13,16:40,0.181,0.158,0.261,0.248,0.246,0.141,0.086,south-southeast,3.2,No
2020/11/13,16:50,0.181,0.159,0.261,0.247,0.246,0.141,0.085,south,2.4,No
2020/11/13,17:00,0.180,0.157,0.261,0.247,0.247,0.141,0.084,south-southwest,1.3,No
2020/11/13,17:10,0.181,0.159,0.263,0.247,0.246,0.141,0.085,-,CALM,No
2020/11/13,17:20,0.180,0.160,0.261,0.248,0.247,0.141,0.084,south-southwest,1.3,No
2020/11/13,17:30,0.181,0.159,0.261,0.247,0.246,0.141,0.085,west-southwest,1.2,No
2020/11/13,17:40,0.180,0.160,0.262,0.248,0.248,0.141,0.084,west-northwest,1.3,No
2020/11/13,17:50,0.180,0.160,0.262,0.247,0.246,0.140,0.085,northwest,1.8,No
2020/11/13,18:00,0.182,0.158,0.262,0.249,0.246,0.141,0.085,northwest,2.5,No
2020/11/13,18:10,0.180,0.160,0.262,0.248,0.247,0.142,0.085,northwest,2.4,No
2020/11/13,18:20,0.180,0.158,0.261,0.248,0.245,0.141,0.085,north-northwest,2.2,No
2020/11/13,18:30,0.181,0.159,0.261,0.248,0.248,0.142,0.085,north-northwest,3.4,No
2020/11/13,18:40,0.180,0.159,0.261,0.248,0.246,0.142,0.086,northwest,3.0,No
2020/11/13,18:50,0.181,0.159,0.262,0.248,0.246,0.142,0.086,northwest,2.9,No
2020/11/13,19:00,0.181,0.160,0.264,0.249,0.247,0.143,0.085,northwest,2.7,No
2020/11/13,19:10,0.181,0.159,0.261,0.247,0.246,0.142,0.086,northwest,3.3,No
2020/11/13,19:20,0.181,0.159,0.261,0.247,0.246,0.141,0.085,west-northwest,5.4,No
2020/11/13,19:30,0.181,0.160,0.261,0.248,0.246,0.142,0.085,west-northwest,7.0,No
2020/11/13,19:40,0.181,0.160,0.261,0.248,0.246,0.142,0.086,west-northwest,5.8,No
2020/11/13,19:50,0.182,0.158,0.262,0.247,0.247,0.142,0.086,west-northwest,5.3,No
2020/11/13,20:00,0.181,0.159,0.262,0.248,0.246,0.142,0.086,west,6.6,No
2020/11/13,20:10,0.180,0.159,0.261,0.248,0.246,0.141,0.085,west,7.1,No
2020/11/13,20:20,0.181,0.159,0.262,0.247,0.246,0.142,0.086,west-northwest,6.2,No
2020/11/13,20:30,0.181,0.159,0.261,0.248,0.246,0.141,0.086,west-northwest,3.3,No
2020/11/13,20:40,0.181,0.159,0.261,0.250,0.246,0.142,0.086,northwest,1.1,No
2020/11/13,20:50,0.180,0.159,0.262,0.247,0.246,0.141,0.085,-,CALM,No
2020/11/13,21:00,0.180,0.159,0.261,0.248,0.246,0.142,0.085,west-southwest,1.3,No
2020/11/13,21:10,0.181,0.159,0.260,0.249,0.246,0.141,0.085,-,CALM,No
2020/11/13,21:20,0.180,0.159,0.262,0.247,0.245,0.141,0.086,-,CALM,No
2020/11/13,21:30,0.181,0.159,0.262,0.248,0.247,0.141,0.084,-,CALM,No
2020/11/13,21:40,0.180,0.159,0.262,0.249,0.247,0.141,0.085,south-southeast,1.7,No
2020/11/13,21:50,0.181,0.159,0.262,0.249,0.245,0.140,0.086,east,2.4,No
2020/11/13,22:00,0.181,0.159,0.261,0.249,0.246,0.141,0.086,north-northwest,1.2,No
2020/11/13,22:10,0.180,0.160,0.261,0.249,0.246,0.141,0.085,west-northwest,3.8,No
2020/11/13,22:20,0.180,0.159,0.261,0.247,0.246,0.141,0.085,west,6.4,No
2020/11/13,22:30,0.181,0.158,0.261,0.248,0.245,0.141,0.084,west,8.6,No
2020/11/13,22:40,0.180,0.159,0.261,0.247,0.245,0.141,0.085,west-northwest,7.3,No
2020/11/13,22:50,0.181,0.158,0.261,0.248,0.246,0.141,0.085,west,6.0,No
2020/11/13,23:00,0.181,0.159,0.259,0.248,0.245,0.141,0.085,west,4.1,No
2020/11/13,23:10,0.180,0.159,0.261,0.248,0.246,0.141,0.084,west,4.9,No
2020/11/13,23:20,0.180,0.158,0.261,0.247,0.246,0.140,0.085,west-northwest,5.0,No
2020/11/13,23:30,0.181,0.159,0.261,0.248,0.245,0.141,0.085,west-northwest,4.0,No
2020/11/13,23:40,0.180,0.159,0.261,0.247,0.246,0.142,0.084,west-northwest,4.5,No
2020/11/13,23:50,0.181,0.158,0.261,0.247,0.245,0.141,0.086,west-northwest,4.0,No
